Lid_Strength_Index
13 12 12 12 12 12 14 14 15 14 14 12 10 9 8 8 9 8 6 6 6 6 6 6 6 5 4 4 4 5 5 6 6 6 6 6 6 6 5 6 6 6 5 6
13 11 11 12 11 11 12 13 13 13 14 10 8 8 8 8 7 8 8 8 6 5 6 6 6 5 4 4 5 5 6 6 6 6 6 6 6 5 5 5 6 5 5 6
16 12 12 15 14 13 13 11 12 14 12 10 10 10 9 8 7 7 7 7 7 6 5 5 5 4 5 4 4 5 5 6 6 6 6 5 5 5 5 5 5 5 5 5
15 14 18 13 9 10 11 11 10 10 9 10 10 9 9 7 8 8 7 6 5 4 5 3 3 4 3 4 5 5 5 6 6 6 6 6 6 5 4 5 5 5 5 5
16 16 15 13 11 12 12 13 9 10 10 10 9 9 8 7 7 7 6 6 5 4 4 4 3 3 4 5 5 5 5 5 5 5 6 6 6 6 6 6 6 6 5 5
16 18 20 14 9 8 8 15 9 9 11 11 11 14 12 8 8 7 7 6 6 4 4 5 4 3 4 5 5 5 5 5 5 5 5 6 6 6 7 6 6 5 5 5
16 17 14 10 9 8 16 14 10 9 10 10 11 10 8 8 8 7 7 6 5 4 5 5 5 4 5 5 6 5 4 5 5 6 6 6 6 7 6 6 6 6 6 5
14 16 18 9 10 13 13 10 10 10 10 10 9 8 7 7 6 6 5 5 4 4 5 4 4 5 5 5 4 4 5 5 6 6 6 7 7 7 6 6 7 7 7 6
13 14 10 9 11 11 11 11 10 11 9 9 9 9 9 8 7 6 6 5 5 5 4 4 3 4 5 5 4 5 5 5 6 6 7 6 7 7 7 7 7 7 7 7
13 12 12 11 11 10 9 9 8 8 9 8 9 8 9 8 9 8 6 6 5 5 4 4 3 3 3 3 4 5 5 5 5 6 7 7 6 6 6 7 7 7 7 7
14 13 11 10 10 9 9 8 9 9 9 9 9 9 8 8 8 7 6 6 5 6 5 4 2 2 2 2 3 5 5 5 6 6 7 7 6 6 6 5 6 7 6 6
16 11 12 12 9 8 9 10 9 10 10 10 10 10 10 8 8 8 8 7 6 6 6 5 3 2 2 1 3 4 5 5 6 6 6 7 7 6 7 6 7 8 7 6
12 9 10 8 8 8 10 10 10 11 11 11 10 10 10 10 7 7 7 6 6 6 6 5 4 2 2 3 3 4 4 5 6 6 7 7 6 6 6 6 7 8 8 8
8 8 9 9 10 8 9 10 10 10 10 10 11 11 11 10 8 7 7 6 4 4 3 2 4 3 1 1 3 3 4 6 5 6 6 6 5 5 5 5 5 5 7 7
8 8 9 8 8 9 9 10 10 11 11 11 10 12 12 11 11 11 9 7 4 4 4 4 4 3 3 1 3 4 4 4 5 5 5 5 5 5 5 5 5 4 4 7
8 9 9 10 9 9 10 10 10 11 10 10 11 11 12 12 11 11 9 8 9 9 8 7 7 7 5 5 5 4 3 5 6 4 5 5 5 5 5 5 4 4 4 4
9 10 10 10 9 9 10 10 10 10 10 11 11 10 11 13 12 12 11 9 9 9 9 9 8 7 7 6 6 5 5 3 7 5 4 5 5 5 5 5 4 4 4 3
8 8 8 9 9 9 10 10 10 10 11 10 10 11 11 12 13 13 12 11 10 10 11 10 9 9 9 8 7 6 7 6 5 4 4 4 5 4 4 4 4 4 3 3
8 9 9 9 9 10 10 10 10 10 10 10 11 12 12 12 12 13 12 12 12 12 12 10 9 10 11 9 9 8 9 9 11 11 11 11 11 10 9 9 7 6 6 5
8 9 10 10 9 10 10 10 10 10 10 11 11 12 13 12 11 11 12 13 13 12 11 10 11 11 11 11 11 11 11 12 12 12 12 13 13 13 13 13 12 12 12 11
9 10 10 10 10 10 9 9 10 10 10 10 11 12 12 12 11 11 12 12 11 12 11 11 12 12 11 12 12 12 12 12 13 13 14 14 14 14 14 14 13 14 13 13
10 10 10 10 10 10 9 9 9 9 10 10 10 11 11 11 11 11 11 11 10 11 11 11 12 13 13 13 12 13 13 13 13 13 13 13 13 13 14 13 13 13 13 13
10 10 9 9 10 10 10 9 9 9 9 10 10 11 11 11 11 11 11 9 10 11 11 11 12 13 13 12 12 13 14 14 14 14 14 14 13 13 13 13 13 13 13 13
10 10 10 9 9 10 10 9 9 9 10 10 9 9 10 10 10 10 10 11 11 10 10 11 12 13 13 12 12 12 12 12 12 12 12 12 13 13 13 13 13 13 14 14
10 10 10 10 11 11 11 10 9 10 10 10 10 10 10 10 10 10 9 9 10 9 9 11 12 13 12 12 12 13 13 13 13 13 13 13 13 14 13 13 14 14 13 13
10 10 10 10 10 10 11 11 11 11 11 11 10 10 9 9 9 9 9 9 9 10 9 9 10 10 11 12 12 12 12 12 12 13 13 13 13 13 12 12 12 12 12 12
10 10 10 10 10 10 11 11 11 11 11 11 10 10 10 9 9 9 9 9 9 9 9 9 10 11 11 11 12 12 12 12 13 12 12 12 12 11 11 11 11 10 10 11